data;timeIndex;residenti;non residenti;areac
2014-01-01;00:00;53;805;0
2014-01-01;00:30;170;1358;0
2014-01-01;01:00;295;1913;0
2014-01-01;01:30;344;1973;0
2014-01-01;02:00;296;1854;0
2014-01-01;02:30;229;1563;0
2014-01-01;03:00;182;1418;0
2014-01-01;03:30;145;1180;0
2014-01-01;04:00;91;1027;0
2014-01-01;04:30;97;884;0
2014-01-01;05:00;53;790;0
2014-01-01;05:30;55;737;0
2014-01-01;06:00;50;676;0
2014-01-01;06:30;31;724;0
2014-01-01;07:00;38;474;0
2014-01-01;07:30;34;502;0
2014-01-01;08:00;24;432;0
2014-01-01;08:30;32;507;0
2014-01-01;09:00;48;643;0
2014-01-01;09:30;61;851;0
2014-01-01;10:00;80;1114;0
2014-01-01;10:30;138;1385;0
2014-01-01;11:00;149;1532;0
2014-01-01;11:30;158;1697;0
2014-01-01;12:00;240;1780;0
2014-01-01;12:30;227;1735;0
2014-01-01;13:00;206;1552;0
2014-01-01;13:30;172;1433;0
2014-01-01;14:00;144;1549;0
2014-01-01;14:30;194;1998;0
2014-01-01;15:00;234;2397;0
2014-01-01;15:30;278;2722;0
2014-01-01;16:00;270;3020;0
2014-01-01;16:30;310;2809;0
2014-01-01;17:00;367;2741;0
2014-01-01;17:30;316;2454;0
2014-01-01;18:00;352;2177;0
2014-01-01;18:30;354;1950;0
2014-01-01;19:00;364;1727;0
2014-01-01;19:30;335;1587;0
2014-01-01;20:00;257;1361;0
2014-01-01;20:30;206;1136;0
2014-01-01;21:00;198;1000;0
2014-01-01;21:30;207;968;0
2014-01-01;22:00;169;1000;0
2014-01-01;22:30;178;909;0
2014-01-01;23:00;135;878;0
2014-01-01;23:30;117;681;0
2014-01-02;00:00;99;605;0
2014-01-02;00:30;70;420;0
2014-01-02;01:00;45;354;0
2014-01-02;01:30;37;243;0
2014-01-02;02:00;20;186;0
2014-01-02;02:30;17;128;0
2014-01-02;03:00;3;141;0
2014-01-02;03:30;4;157;0
2014-01-02;04:00;1;170;0
2014-01-02;04:30;7;313;0
2014-01-02;05:00;8;423;0
2014-01-02;05:30;16;702;0
2014-01-02;06:00;21;916;0
2014-01-02;06:30;35;1489;0
2014-01-02;07:00;55;2012;0
2014-01-02;07:30;80;2370;0
2014-01-02;08:00;126;2619;0
2014-01-02;08:30;154;2916;0
2014-01-02;09:00;169;2758;0
2014-01-02;09:30;208;2946;0
2014-01-02;10:00;227;2925;0
2014-01-02;10:30;283;2923;0
2014-01-02;11:00;332;2959;0
2014-01-02;11:30;331;2736;0
2014-01-02;12:00;422;2422;0
2014-01-02;12:30;398;2339;0
2014-01-02;13:00;344;2078;0
2014-01-02;13:30;288;1986;0
2014-01-02;14:00;276;2424;0
2014-01-02;14:30;277;2773;0
2014-01-02;15:00;313;2671;0
2014-01-02;15:30;350;2559;0
2014-01-02;16:00;384;2662;0
2014-01-02;16:30;416;2499;0
2014-01-02;17:00;474;2625;0
2014-01-02;17:30;480;2608;0
2014-01-02;18:00;510;2521;0
2014-01-02;18:30;560;2264;0
2014-01-02;19:00;505;2006;0
2014-01-02;19:30;489;2058;0
2014-01-02;20:00;374;1799;0
2014-01-02;20:30;212;1461;0
2014-01-02;21:00;183;1154;0
2014-01-02;21:30;166;1144;0
2014-01-02;22:00;169;1108;0
2014-01-02;22:30;128;1007;0
2014-01-02;23:00;144;950;0
2014-01-02;23:30;150;868;0
2014-01-03;00:00;113;731;0
2014-01-03;00:30;102;559;0
2014-01-03;01:00;64;447;0
2014-01-03;01:30;49;346;0
2014-01-03;02:00;38;273;0
2014-01-03;02:30;16;234;0
2014-01-03;03:00;20;187;0
2014-01-03;03:30;10;191;0
2014-01-03;04:00;10;244;0
2014-01-03;04:30;6;308;0
2014-01-03;05:00;14;480;0
2014-01-03;05:30;13;628;0
2014-01-03;06:00;21;862;0
2014-01-03;06:30;38;1546;0
2014-01-03;07:00;57;2072;0
2014-01-03;07:30;81;2351;0
2014-01-03;08:00;105;2689;0
2014-01-03;08:30;160;3216;0
2014-01-03;09:00;178;3099;0
2014-01-03;09:30;223;3238;0
2014-01-03;10:00;263;3288;0
2014-01-03;10:30;278;3502;0
2014-01-03;11:00;354;3416;0
2014-01-03;11:30;361;3201;0
2014-01-03;12:00;404;2939;0
2014-01-03;12:30;423;2659;0
2014-01-03;13:00;370;2529;0
2014-01-03;13:30;312;2531;0
2014-01-03;14:00;252;2554;0
2014-01-03;14:30;318;2816;0
2014-01-03;15:00;327;2969;0
2014-01-03;15:30;357;2996;0
2014-01-03;16:00;416;2907;0
2014-01-03;16:30;454;2823;0
2014-01-03;17:00;525;2911;0
2014-01-03;17:30;534;2817;0
2014-01-03;18:00;554;2666;0
2014-01-03;18:30;544;2340;0
2014-01-03;19:00;480;2274;0
2014-01-03;19:30;480;2481;0
2014-01-03;20:00;389;2220;0
2014-01-03;20:30;281;1805;0
2014-01-03;21:00;196;1464;0
2014-01-03;21:30;172;1497;0
2014-01-03;22:00;185;1495;0
2014-01-03;22:30;202;1540;0
2014-01-03;23:00;195;1484;0
2014-01-03;23:30;190;1375;0
2014-01-04;00:00;172;1244;0
2014-01-04;00:30;135;958;0
2014-01-04;01:00;124;824;0
2014-01-04;01:30;77;615;0
2014-01-04;02:00;53;470;0
2014-01-04;02:30;43;395;0
2014-01-04;03:00;26;394;0
2014-01-04;03:30;23;377;0
2014-01-04;04:00;25;307;0
2014-01-04;04:30;27;331;0
2014-01-04;05:00;11;429;0
2014-01-04;05:30;9;585;0
2014-01-04;06:00;25;704;0
2014-01-04;06:30;45;1107;0
2014-01-04;07:00;50;1145;0
2014-01-04;07:30;73;1524;0
2014-01-04;08:00;92;1548;0
2014-01-04;08:30;115;1883;0
2014-01-04;09:00;167;2382;0
2014-01-04;09:30;200;3097;0
2014-01-04;10:00;311;3407;0
2014-01-04;10:30;359;3501;0
2014-01-04;11:00;468;3548;0
2014-01-04;11:30;583;3433;0
2014-01-04;12:00;587;3220;0
2014-01-04;12:30;598;3002;0
2014-01-04;13:00;532;2679;0
2014-01-04;13:30;403;2461;0
2014-01-04;14:00;327;2574;0
2014-01-04;14:30;382;3029;0
2014-01-04;15:00;409;3165;0
2014-01-04;15:30;457;3546;0
2014-01-04;16:00;487;3562;0
2014-01-04;16:30;495;3241;0
2014-01-04;17:00;567;3162;0
2014-01-04;17:30;527;3102;0
2014-01-04;18:00;568;2927;0
2014-01-04;18:30;548;2808;0
2014-01-04;19:00;512;2728;0
2014-01-04;19:30;493;2751;0
2014-01-04;20:00;378;2617;0
2014-01-04;20:30;278;2209;0
2014-01-04;21:00;231;1754;0
2014-01-04;21:30;181;1707;0
2014-01-04;22:00;190;1729;0
2014-01-04;22:30;229;1732;0
2014-01-04;23:00;238;1702;0
2014-01-04;23:30;230;1790;0
2014-01-05;00:00;246;1470;0
2014-01-05;00:30;195;1196;0
2014-01-05;01:00;147;957;0
2014-01-05;01:30;157;912;0
2014-01-05;02:00;77;646;0
2014-01-05;02:30;69;494;0
2014-01-05;03:00;49;380;0
2014-01-05;03:30;41;387;0
2014-01-05;04:00;29;327;0
2014-01-05;04:30;23;280;0
2014-01-05;05:00;15;324;0
2014-01-05;05:30;13;379;0
2014-01-05;06:00;18;460;0
2014-01-05;06:30;28;675;0
2014-01-05;07:00;26;532;0
2014-01-05;07:30;24;726;0
2014-01-05;08:00;39;726;0
2014-01-05;08:30;49;983;0
2014-01-05;09:00;111;1392;0
2014-01-05;09:30;159;2089;0
2014-01-05;10:00;175;2311;0
2014-01-05;10:30;236;2681;0
2014-01-05;11:00;317;2804;0
2014-01-05;11:30;400;2896;0
2014-01-05;12:00;459;2691;0
2014-01-05;12:30;529;2556;0
2014-01-05;13:00;450;2276;0
2014-01-05;13:30;384;2196;0
2014-01-05;14:00;347;2557;0
2014-01-05;14:30;395;2935;0
2014-01-05;15:00;427;3334;0
2014-01-05;15:30;445;3533;0
2014-01-05;16:00;482;3581;0
2014-01-05;16:30;561;3686;0
2014-01-05;17:00;558;3234;0
2014-01-05;17:30;550;3142;0
2014-01-05;18:00;598;3059;0
2014-01-05;18:30;671;2860;0
2014-01-05;19:00;608;2710;0
2014-01-05;19:30;565;2734;0
2014-01-05;20:00;466;2384;0
2014-01-05;20:30;332;1829;0
2014-01-05;21:00;233;1459;0
2014-01-05;21:30;213;1435;0
2014-01-05;22:00;255;1452;0
2014-01-05;22:30;275;1544;0
2014-01-05;23:00;250;1519;0
2014-01-05;23:30;266;1373;0
2014-01-06;00:00;275;1257;0
2014-01-06;00:30;193;1055;0
2014-01-06;01:00;167;871;0
2014-01-06;01:30;114;689;0
2014-01-06;02:00;58;481;0
2014-01-06;02:30;48;430;0
2014-01-06;03:00;36;321;0
2014-01-06;03:30;27;290;0
2014-01-06;04:00;15;306;0
2014-01-06;04:30;20;352;0
2014-01-06;05:00;13;389;0
2014-01-06;05:30;20;468;0
2014-01-06;06:00;22;526;0
2014-01-06;06:30;31;747;0
2014-01-06;07:00;29;598;0
2014-01-06;07:30;40;734;0
2014-01-06;08:00;50;832;0
2014-01-06;08:30;77;1052;0
2014-01-06;09:00;135;1475;0
2014-01-06;09:30;168;2198;0
2014-01-06;10:00;260;2753;0
2014-01-06;10:30;313;3539;0
2014-01-06;11:00;392;3730;0
2014-01-06;11:30;519;3633;0
2014-01-06;12:00;625;3342;0
2014-01-06;12:30;724;3201;0
2014-01-06;13:00;563;2825;0
2014-01-06;13:30;462;2461;0
2014-01-06;14:00;428;2809;0
2014-01-06;14:30;502;3443;0
2014-01-06;15:00;564;3841;0
2014-01-06;15:30;623;4140;0
2014-01-06;16:00;671;3989;0
2014-01-06;16:30;671;3742;0
2014-01-06;17:00;755;3691;0
2014-01-06;17:30;772;3479;0
2014-01-06;18:00;815;3355;0
2014-01-06;18:30;765;2749;0
2014-01-06;19:00;732;2516;0
2014-01-06;19:30;649;2617;0
2014-01-06;20:00;548;2292;0
2014-01-06;20:30;390;1888;0
2014-01-06;21:00;335;1627;0
2014-01-06;21:30;378;1644;0
2014-01-06;22:00;376;1668;0
2014-01-06;22:30;350;1436;0
2014-01-06;23:00;290;1297;0
2014-01-06;23:30;239;1112;0
2014-01-07;00:00;191;778;0
2014-01-07;00:30;145;590;0
2014-01-07;01:00;86;443;0
2014-01-07;01:30;49;327;0
2014-01-07;02:00;35;247;0
2014-01-07;02:30;19;169;0
2014-01-07;03:00;21;192;0
2014-01-07;03:30;8;202;0
2014-01-07;04:00;2;206;0
2014-01-07;04:30;9;351;0
2014-01-07;05:00;4;525;0
2014-01-07;05:30;22;829;0
2014-01-07;06:00;43;1268;0
2014-01-07;06:30;68;2564;0
2014-01-07;07:00;148;3887;0
2014-01-07;07:30;271;3229;1
2014-01-07;08:00;334;3542;1
2014-01-07;08:30;313;3764;1
2014-01-07;09:00;328;4060;1
2014-01-07;09:30;275;3857;1
2014-01-07;10:00;315;3619;1
2014-01-07;10:30;299;3339;1
2014-01-07;11:00;362;3078;1
2014-01-07;11:30;377;3049;1
2014-01-07;12:00;456;2758;1
2014-01-07;12:30;538;2490;1
2014-01-07;13:00;456;2414;1
2014-01-07;13:30;367;2439;1
2014-01-07;14:00;361;2652;1
2014-01-07;14:30;370;2933;1
2014-01-07;15:00;402;2796;1
2014-01-07;15:30;497;2788;1
2014-01-07;16:00;643;2635;1
2014-01-07;16:30;518;2542;1
2014-01-07;17:00;609;2367;1
2014-01-07;17:30;678;2389;1
2014-01-07;18:00;782;2237;1
2014-01-07;18:30;856;2121;1
2014-01-07;19:00;813;1950;1
2014-01-07;19:30;1404;3635;0
2014-01-07;20:00;853;2994;0
2014-01-07;20:30;541;2284;0
2014-01-07;21:00;356;1734;0
2014-01-07;21:30;286;1495;0
2014-01-07;22:00;262;1367;0
2014-01-07;22:30;282;1222;0
2014-01-07;23:00;257;1200;0
2014-01-07;23:30;226;1059;0
2014-01-08;00:00;180;817;0
2014-01-08;00:30;126;568;0
2014-01-08;01:00;80;446;0
2014-01-08;01:30;52;383;0
2014-01-08;02:00;29;252;0
2014-01-08;02:30;24;220;0
2014-01-08;03:00;18;191;0
2014-01-08;03:30;13;230;0
2014-01-08;04:00;5;203;0
2014-01-08;04:30;9;336;0
2014-01-08;05:00;11;495;0
2014-01-08;05:30;17;778;0
2014-01-08;06:00;29;1248;0
2014-01-08;06:30;74;2428;0
2014-01-08;07:00;127;3998;0
2014-01-08;07:30;208;3179;1
2014-01-08;08:00;341;3562;1
2014-01-08;08:30;309;3996;1
2014-01-08;09:00;345;4199;1
2014-01-08;09:30;340;4115;1
2014-01-08;10:00;328;3957;1
2014-01-08;10:30;317;3762;1
2014-01-08;11:00;345;3431;1
2014-01-08;11:30;428;3356;1
2014-01-08;12:00;460;2915;1
2014-01-08;12:30;516;2769;1
2014-01-08;13:00;494;2685;1
2014-01-08;13:30;372;2638;1
2014-01-08;14:00;375;2949;1
2014-01-08;14:30;396;3348;1
2014-01-08;15:00;457;3024;1
2014-01-08;15:30;522;3055;1
2014-01-08;16:00;578;2896;1
2014-01-08;16:30;529;2687;1
2014-01-08;17:00;604;2523;1
2014-01-08;17:30;672;2490;1
2014-01-08;18:00;795;2325;1
2014-01-08;18:30;879;2182;1
2014-01-08;19:00;771;2017;1
2014-01-08;19:30;1430;4168;0
2014-01-08;20:00;852;3258;0
2014-01-08;20:30;573;2593;0
2014-01-08;21:00;352;1900;0
2014-01-08;21:30;297;1696;0
2014-01-08;22:00;291;1642;0
2014-01-08;22:30;298;1519;0
2014-01-08;23:00;287;1466;0
2014-01-08;23:30;291;1316;0
2014-01-09;00:00;198;1002;0
2014-01-09;00:30;165;768;0
2014-01-09;01:00;113;539;0
2014-01-09;01:30;55;443;0
2014-01-09;02:00;48;324;0
2014-01-09;02:30;31;260;0
2014-01-09;03:00;20;251;0
2014-01-09;03:30;8;224;0
2014-01-09;04:00;10;243;0
2014-01-09;04:30;7;348;0
2014-01-09;05:00;14;546;0
2014-01-09;05:30;26;854;0
2014-01-09;06:00;31;1226;0
2014-01-09;06:30;59;2524;0
2014-01-09;07:00;130;4016;0
2014-01-09;07:30;224;3187;1
2014-01-09;08:00;347;3846;1
2014-01-09;08:30;283;4043;1
2014-01-09;09:00;323;4499;1
2014-01-09;09:30;297;4385;1
2014-01-09;10:00;281;4022;1
2014-01-09;10:30;298;3817;1
2014-01-09;11:00;297;3718;1
2014-01-09;11:30;404;3448;1
2014-01-09;12:00;448;3045;1
2014-01-09;12:30;465;2998;1
2014-01-09;13:00;450;2721;1
2014-01-09;13:30;332;2859;1
2014-01-09;14:00;336;3004;1
2014-01-09;14:30;358;3350;1
2014-01-09;15:00;457;3169;1
2014-01-09;15:30;444;3191;1
2014-01-09;16:00;568;3066;1
2014-01-09;16:30;555;2846;1
2014-01-09;17:00;575;2682;1
2014-01-09;17:30;626;2569;1
2014-01-09;18:00;978;3409;0
2014-01-09;18:30;984;3200;0
2014-01-09;19:00;922;3024;0
2014-01-09;19:30;1173;3867;0
2014-01-09;20:00;847;3802;0
2014-01-09;20:30;547;2977;0
2014-01-09;21:00;375;2295;0
2014-01-09;21:30;284;1834;0
2014-01-09;22:00;274;1734;0
2014-01-09;22:30;315;1621;0
2014-01-09;23:00;282;1608;0
2014-01-09;23:30;319;1439;0
2014-01-10;00:00;244;1156;0
2014-01-10;00:30;144;919;0
2014-01-10;01:00;120;660;0
2014-01-10;01:30;63;521;0
2014-01-10;02:00;50;398;0
2014-01-10;02:30;25;315;0
2014-01-10;03:00;19;261;0
2014-01-10;03:30;6;247;0
2014-01-10;04:00;9;311;0
2014-01-10;04:30;7;392;0
2014-01-10;05:00;25;562;0
2014-01-10;05:30;17;816;0
2014-01-10;06:00;27;1158;0
2014-01-10;06:30;72;2407;0
2014-01-10;07:00;138;4083;0
2014-01-10;07:30;181;3213;1
2014-01-10;08:00;331;3877;1
2014-01-10;08:30;275;4204;1
2014-01-10;09:00;350;4467;1
2014-01-10;09:30;296;4537;1
2014-01-10;10:00;306;4214;1
2014-01-10;10:30;326;3968;1
2014-01-10;11:00;348;3904;1
2014-01-10;11:30;411;3612;1
2014-01-10;12:00;449;3293;1
2014-01-10;12:30;485;3171;1
2014-01-10;13:00;437;3045;1
2014-01-10;13:30;413;2986;1
2014-01-10;14:00;362;3249;1
2014-01-10;14:30;378;3409;1
2014-01-10;15:00;432;3371;1
2014-01-10;15:30;504;3209;1
2014-01-10;16:00;586;3097;1
2014-01-10;16:30;647;2973;1
2014-01-10;17:00;636;2841;1
2014-01-10;17:30;732;2733;1
2014-01-10;18:00;745;2664;1
2014-01-10;18:30;832;2423;1
2014-01-10;19:00;696;2344;1
2014-01-10;19:30;1243;4603;0
2014-01-10;20:00;829;3950;0
2014-01-10;20:30;529;3516;0
2014-01-10;21:00;388;2978;0
2014-01-10;21:30;282;2484;0
2014-01-10;22:00;319;2502;0
2014-01-10;22:30;345;2481;0
2014-01-10;23:00;334;2457;0
2014-01-10;23:30;338;2286;0
2014-01-11;00:00;337;2174;0
2014-01-11;00:30;263;1938;0
2014-01-11;01:00;247;1488;0
2014-01-11;01:30;140;1167;0
2014-01-11;02:00;126;1005;0
2014-01-11;02:30;97;861;0
2014-01-11;03:00;73;723;0
2014-01-11;03:30;57;548;0
2014-01-11;04:00;40;557;0
2014-01-11;04:30;42;595;0
2014-01-11;05:00;39;668;0
2014-01-11;05:30;32;726;0
2014-01-11;06:00;25;855;0
2014-01-11;06:30;39;1302;0
2014-01-11;07:00;59;1372;0
2014-01-11;07:30;113;2421;0
2014-01-11;08:00;164;2390;0
2014-01-11;08:30;217;2847;0
2014-01-11;09:00;261;3368;0
2014-01-11;09:30;363;4013;0
2014-01-11;10:00;475;4312;0
2014-01-11;10:30;579;4564;0
2014-01-11;11:00;636;4405;0
2014-01-11;11:30;766;4292;0
2014-01-11;12:00;894;4107;0
2014-01-11;12:30;890;4022;0
2014-01-11;13:00;844;3657;0
2014-01-11;13:30;618;3164;0
2014-01-11;14:00;523;3255;0
2014-01-11;14:30;549;3653;0
2014-01-11;15:00;512;4015;0
2014-01-11;15:30;607;4333;0
2014-01-11;16:00;699;4600;0
2014-01-11;16:30;715;4486;0
2014-01-11;17:00;749;4258;0
2014-01-11;17:30;780;4220;0
2014-01-11;18:00;806;4022;0
2014-01-11;18:30;798;3846;0
2014-01-11;19:00;733;3799;0
2014-01-11;19:30;685;4177;0
2014-01-11;20:00;566;4431;0
2014-01-11;20:30;498;4051;0
2014-01-11;21:00;327;3333;0
2014-01-11;21:30;286;2826;0
2014-01-11;22:00;300;2770;0
2014-01-11;22:30;326;2764;0
2014-01-11;23:00;327;2887;0
2014-01-11;23:30;430;2961;0
2014-01-12;00:00;465;2944;0
2014-01-12;00:30;443;2553;0
2014-01-12;01:00;315;2143;0
2014-01-12;01:30;252;1698;0
2014-01-12;02:00;174;1236;0
2014-01-12;02:30;101;1093;0
2014-01-12;03:00;94;762;0
2014-01-12;03:30;67;667;0
2014-01-12;04:00;47;602;0
2014-01-12;04:30;35;579;0
2014-01-12;05:00;39;571;0
2014-01-12;05:30;27;540;0
2014-01-12;06:00;18;552;0
2014-01-12;06:30;21;798;0
2014-01-12;07:00;31;642;0
2014-01-12;07:30;40;911;0
2014-01-12;08:00;70;1169;0
2014-01-12;08:30;125;1831;0
2014-01-12;09:00;163;2238;0
2014-01-12;09:30;222;2689;0
2014-01-12;10:00;264;3156;0
2014-01-12;10:30;311;3297;0
2014-01-12;11:00;365;3542;0
2014-01-12;11:30;500;3415;0
2014-01-12;12:00;550;3161;0
2014-01-12;12:30;718;3109;0
2014-01-12;13:00;626;2811;0
2014-01-12;13:30;427;2532;0
2014-01-12;14:00;369;2672;0
2014-01-12;14:30;470;3594;0
2014-01-12;15:00;538;4093;0
2014-01-12;15:30;579;4356;0
2014-01-12;16:00;692;4360;0
2014-01-12;16:30;702;4195;0
2014-01-12;17:00;800;3966;0
2014-01-12;17:30;849;3868;0
2014-01-12;18:00;837;3652;0
2014-01-12;18:30;860;3425;0
2014-01-12;19:00;820;3456;0
2014-01-12;19:30;766;3164;0
2014-01-12;20:00;636;3136;0
2014-01-12;20:30;435;2285;0
2014-01-12;21:00;385;1820;0
2014-01-12;21:30;383;1737;0
2014-01-12;22:00;358;1648;0
2014-01-12;22:30;363;1805;0
2014-01-12;23:00;329;1488;0
2014-01-12;23:30;244;1303;0
2014-01-13;00:00;176;1053;0
2014-01-13;00:30;139;815;0
2014-01-13;01:00;64;584;0
2014-01-13;01:30;42;464;0
2014-01-13;02:00;39;373;0
2014-01-13;02:30;17;319;0
2014-01-13;03:00;15;253;0
2014-01-13;03:30;11;219;0
2014-01-13;04:00;7;263;0
2014-01-13;04:30;13;356;0
2014-01-13;05:00;12;561;0
2014-01-13;05:30;15;909;0
2014-01-13;06:00;33;1303;0
2014-01-13;06:30;91;2489;0
2014-01-13;07:00;155;4072;0
2014-01-13;07:30;226;3121;1
2014-01-13;08:00;335;3840;1
2014-01-13;08:30;316;4303;1
2014-01-13;09:00;338;4504;1
2014-01-13;09:30;339;4282;1
2014-01-13;10:00;333;4039;1
2014-01-13;10:30;350;4042;1
2014-01-13;11:00;375;3747;1
2014-01-13;11:30;438;3629;1
2014-01-13;12:00;458;3160;1
2014-01-13;12:30;494;3035;1
2014-01-13;13:00;452;3087;1
2014-01-13;13:30;386;2958;1
2014-01-13;14:00;380;3194;1
2014-01-13;14:30;369;3534;1
2014-01-13;15:00;397;3541;1
2014-01-13;15:30;515;3267;1
2014-01-13;16:00;641;3137;1
2014-01-13;16:30;675;3129;1
2014-01-13;17:00;629;2982;1
2014-01-13;17:30;743;2887;1
2014-01-13;18:00;838;2605;1
2014-01-13;18:30;935;2687;1
2014-01-13;19:00;855;2537;1
2014-01-13;19:30;1446;4534;0
2014-01-13;20:00;943;3723;0
2014-01-13;20:30;626;2972;0
2014-01-13;21:00;387;2231;0
2014-01-13;21:30;317;1745;0
2014-01-13;22:00;315;1632;0
2014-01-13;22:30;321;1658;0
2014-01-13;23:00;353;1622;0
2014-01-13;23:30;316;1394;0
2014-01-14;00:00;234;1114;0
2014-01-14;00:30;161;799;0
2014-01-14;01:00;92;571;0
2014-01-14;01:30;46;483;0
2014-01-14;02:00;36;345;0
2014-01-14;02:30;18;292;0
2014-01-14;03:00;15;215;0
2014-01-14;03:30;8;223;0
2014-01-14;04:00;14;249;0
2014-01-14;04:30;12;394;0
2014-01-14;05:00;7;537;0
2014-01-14;05:30;21;936;0
2014-01-14;06:00;27;1352;0
2014-01-14;06:30;82;2640;0
2014-01-14;07:00;139;4422;0
2014-01-14;07:30;280;3671;1
2014-01-14;08:00;427;4338;1
2014-01-14;08:30;340;4711;1
2014-01-14;09:00;432;4971;1
2014-01-14;09:30;376;5077;1
2014-01-14;10:00;377;4848;1
2014-01-14;10:30;356;4830;1
2014-01-14;11:00;395;4267;1
2014-01-14;11:30;499;3893;1
2014-01-14;12:00;516;3372;1
2014-01-14;12:30;613;3441;1
2014-01-14;13:00;519;3276;1
2014-01-14;13:30;443;3132;1
2014-01-14;14:00;436;3398;1
2014-01-14;14:30;417;3787;1
2014-01-14;15:00;462;3436;1
2014-01-14;15:30;552;3536;1
2014-01-14;16:00;664;3511;1
2014-01-14;16:30;578;3282;1
2014-01-14;17:00;684;3011;1
2014-01-14;17:30;721;2881;1
2014-01-14;18:00;867;2761;1
2014-01-14;18:30;888;2664;1
2014-01-14;19:00;831;2543;1
2014-01-14;19:30;1553;4765;0
2014-01-14;20:00;981;3966;0
2014-01-14;20:30;668;3173;0
2014-01-14;21:00;387;2292;0
2014-01-14;21:30;295;1929;0
2014-01-14;22:00;340;1722;0
2014-01-14;22:30;369;1789;0
2014-01-14;23:00;378;1643;0
2014-01-14;23:30;327;1644;0
2014-01-15;00:00;269;1233;0
2014-01-15;00:30;182;860;0
2014-01-15;01:00;122;637;0
2014-01-15;01:30;74;465;0
2014-01-15;02:00;25;366;0
2014-01-15;02:30;36;306;0
2014-01-15;03:00;16;263;0
2014-01-15;03:30;17;237;0
2014-01-15;04:00;12;262;0
2014-01-15;04:30;9;350;0
2014-01-15;05:00;25;544;0
2014-01-15;05:30;15;963;0
2014-01-15;06:00;29;1320;0
2014-01-15;06:30;74;2519;0
2014-01-15;07:00;140;4250;0
2014-01-15;07:30;256;3276;1
2014-01-15;08:00;351;4019;1
2014-01-15;08:30;335;4427;1
2014-01-15;09:00;340;4734;1
2014-01-15;09:30;338;4710;1
2014-01-15;10:00;362;4464;1
2014-01-15;10:30;347;4410;1
2014-01-15;11:00;378;3932;1
2014-01-15;11:30;448;3568;1
2014-01-15;12:00;499;3305;1
2014-01-15;12:30;508;3175;1
2014-01-15;13:00;502;2916;1
2014-01-15;13:30;433;3096;1
2014-01-15;14:00;399;3169;1
2014-01-15;14:30;396;3440;1
2014-01-15;15:00;457;3560;1
2014-01-15;15:30;522;3406;1
2014-01-15;16:00;585;3307;1
2014-01-15;16:30;656;3127;1
2014-01-15;17:00;646;2903;1
2014-01-15;17:30;752;2913;1
2014-01-15;18:00;891;2681;1
2014-01-15;18:30;887;2599;1
2014-01-15;19:00;771;2405;1
2014-01-15;19:30;1435;4632;0
2014-01-15;20:00;976;4187;0
2014-01-15;20:30;697;3514;0
2014-01-15;21:00;450;2504;0
2014-01-15;21:30;304;1982;0
2014-01-15;22:00;315;1894;0
2014-01-15;22:30;373;1679;0
2014-01-15;23:00;358;1766;0
2014-01-15;23:30;356;1623;0
2014-01-16;00:00;300;1374;0
2014-01-16;00:30;183;1076;0
2014-01-16;01:00;105;671;0
2014-01-16;01:30;72;491;0
2014-01-16;02:00;42;389;0
2014-01-16;02:30;26;337;0
2014-01-16;03:00;17;307;0
2014-01-16;03:30;6;279;0
2014-01-16;04:00;12;286;0
2014-01-16;04:30;10;390;0
2014-01-16;05:00;8;559;0
2014-01-16;05:30;18;883;0
2014-01-16;06:00;32;1289;0
2014-01-16;06:30;83;2568;0
2014-01-16;07:00;146;4159;0
2014-01-16;07:30;265;3298;1
2014-01-16;08:00;417;4016;1
2014-01-16;08:30;322;4272;1
2014-01-16;09:00;419;4730;1
2014-01-16;09:30;395;4742;1
2014-01-16;10:00;363;4577;1
2014-01-16;10:30;351;4424;1
2014-01-16;11:00;345;4171;1
2014-01-16;11:30;429;3869;1
2014-01-16;12:00;527;3553;1
2014-01-16;12:30;579;3296;1
2014-01-16;13:00;541;3098;1
2014-01-16;13:30;475;3399;1
2014-01-16;14:00;412;3692;1
2014-01-16;14:30;403;3866;1
2014-01-16;15:00;432;3551;1
2014-01-16;15:30;516;3663;1
2014-01-16;16:00;691;3433;1
2014-01-16;16:30;628;3333;1
2014-01-16;17:00;637;3183;1
2014-01-16;17:30;683;3040;1
2014-01-16;18:00;1040;4003;0
2014-01-16;18:30;1137;3914;0
2014-01-16;19:00;1144;3662;0
2014-01-16;19:30;1327;4680;0
2014-01-16;20:00;986;4606;0
2014-01-16;20:30;647;4035;0
2014-01-16;21:00;448;2822;0
2014-01-16;21:30;358;2193;0
2014-01-16;22:00;324;1954;0
2014-01-16;22:30;364;1946;0
2014-01-16;23:00;448;1959;0
2014-01-16;23:30;415;1861;0
2014-01-17;00:00;325;1581;0
2014-01-17;00:30;231;1213;0
2014-01-17;01:00;127;838;0
2014-01-17;01:30;76;660;0
2014-01-17;02:00;49;493;0
2014-01-17;02:30;29;393;0
2014-01-17;03:00;13;303;0
2014-01-17;03:30;13;316;0
2014-01-17;04:00;11;349;0
2014-01-17;04:30;14;431;0
2014-01-17;05:00;20;576;0
2014-01-17;05:30;16;918;0
2014-01-17;06:00;25;1307;0
2014-01-17;06:30;88;2612;0
2014-01-17;07:00;159;4305;0
2014-01-17;07:30;240;3628;1
2014-01-17;08:00;444;4282;1
2014-01-17;08:30;389;4809;1
2014-01-17;09:00;428;5112;1
2014-01-17;09:30;396;5229;1
2014-01-17;10:00;360;4754;1
2014-01-17;10:30;395;4594;1
2014-01-17;11:00;398;4251;1
2014-01-17;11:30;440;3841;1
2014-01-17;12:00;526;3614;1
2014-01-17;12:30;603;3449;1
2014-01-17;13:00;571;3175;1
2014-01-17;13:30;456;3272;1
2014-01-17;14:00;412;3497;1
2014-01-17;14:30;450;3802;1
2014-01-17;15:00;519;3748;1
2014-01-17;15:30;646;3520;1
2014-01-17;16:00;748;3319;1
2014-01-17;16:30;649;3334;1
2014-01-17;17:00;741;3128;1
2014-01-17;17:30;721;3096;1
2014-01-17;18:00;865;2802;1
2014-01-17;18:30;891;2673;1
2014-01-17;19:00;838;2717;1
2014-01-17;19:30;1257;4828;0
2014-01-17;20:00;931;4276;0
2014-01-17;20:30;617;3700;0
2014-01-17;21:00;449;3069;0
2014-01-17;21:30;377;2515;0
2014-01-17;22:00;365;2403;0
2014-01-17;22:30;358;2444;0
2014-01-17;23:00;443;2518;0
2014-01-17;23:30;397;2524;0
2014-01-18;00:00;403;2343;0
2014-01-18;00:30;289;1908;0
2014-01-18;01:00;243;1579;0
2014-01-18;01:30;162;1246;0
2014-01-18;02:00;124;1046;0
2014-01-18;02:30;117;855;0
2014-01-18;03:00;91;684;0
2014-01-18;03:30;59;700;0
2014-01-18;04:00;55;620;0
2014-01-18;04:30;27;578;0
2014-01-18;05:00;57;725;0
2014-01-18;05:30;33;763;0
2014-01-18;06:00;36;853;0
2014-01-18;06:30;53;1206;0
2014-01-18;07:00;80;1408;0
2014-01-18;07:30;126;2175;0
2014-01-18;08:00;153;2289;0
2014-01-18;08:30;188;2896;0
2014-01-18;09:00;300;3236;0
2014-01-18;09:30;354;3956;0
2014-01-18;10:00;481;4326;0
2014-01-18;10:30;672;4424;0
2014-01-18;11:00;729;4401;0
2014-01-18;11:30;864;4360;0
2014-01-18;12:00;937;4194;0